Location: Lake Lucerne
(45.5315°N, 88.8489°W)
Time: 19:43:20
(UTC-05:00)

ARIANE 6 FM1 Upper Stage - Pass Details

Date: 25 September 2024
Orbit: 563 x 594 km, 62.0° (Epoch: 09 October)

Event Time Altitude Azimuth Distance (km) Brightness Sun altitude
Rises 20:00:53 0° 235° (SW) 2,774 6.9 -13.9°
Reaches altitude 10° 20:03:10 10° 241° (WSW) 1,885 6.1 -14.3°
Maximum altitude 20:07:17 47° 317° (NW) 771 3.7 -15.0°
Drops below altitude 10° 20:11:29 10° 32° (NNE) 1,916 5.2 -15.7°
Enters shadow 20:13:34 - 38° (NE) 2,726 5.9 -16.0°
